Starlink 35520

operational
NORAD ID: 66133 Int'l Des: 2025-237 Owner: SPXS Country: US Constellation: starlink
LEOCIRCULAR

About Starlink 35520

Description loading...

Live Position

Loading 3D Globe...

Upcoming Passes

Altitude History

Altitude vs Time

uPlot chart will show altitude changes over time

Two-Line Element Set

1 66133U 25237V 25318.83334491 -.00164607 00000-0 -30007-2 0 9990
2 66133 53.1604 219.1131 0000916 78.9029 185.0893 15.49437486 4996
Epoch: Nov 14, 2025 • Age: 8 hours

Current Status

Altitude 432.0 km
Velocity 7.65 km/s
Sub-Earth Point -39.10°S, 33.66°W
Launch Date Oct 22, 2025
Age 23 days
Type internet

Technical Details

Classification Payload
Mass 575.00 kg
Dry Mass 530.00 kg
Total Mass 575.00 kg
Length 0.30 m
Diameter 4.10 m
Span 29.00 m
Shape Box + pan
Manufacturer SPXS
Bus Type Starlink V2MO
Phase Status In Orbit
Owner/State SPXS/US

Large Constellations

Loading constellations...